Вирбалис

Литва     54°37′34″N   22°49′10″E
темп.,
°C
ветер,
м/с
пор.,
м/с
влажн.,
%
обл.,
%
осадки,
мм/ч
давл.,
гПа
погр.,
м
6 мая, чт
чт600:00+7юз31082100 0.1 998253
03:00+6юз5128499 0.1 998423
06:00+5юз7138597 0.0 998887
09:00+5зюз9148799 0.6 10001081
12:00+7юз91374100 0.3 10011455
15:00+7юз91579100 0.7 10021395
18:00+9зюз8167299 0.8 10031868
21:00+6зюз398430 1.4 1004273
7 мая, пт
пт700:00+3юз389050 0.1 1004150
03:00+3юз4119359 0.1 1005271
06:00+2ююз3992100 0.0 1005229
09:00+7юз3574100 0.0 1005386
12:00+10ююз2454100 0.0 10041440
15:00+9всв2365100 0.3 10031090
18:00+6ссв4693100 2.5 1002927
21:00+5ссз4796100 5.4 1003826
8 мая, сб
сб800:00+4сз41094100 2.3 1004687
03:00+3зсз61294100 2.3 1005622
06:00+2з51294100 0.0 1007573
09:00+5зсз71384100 0.1 10091196
12:00+6зсз7108193 0.6 10111146
15:00+10зсз812475 0.9 10121877
18:00+9зсз710550 0.0 10141559
21:00+4зсз38730 0.0 1016169
9 мая, вс
вс900:00+2зюз36930 0.0 101898
03:00+1юз379561 0.0 1019128
06:00+1юз359499 0.0 101994
09:00+7юз467188 0.0 1019372
12:00+12ююз5755100 0.0 10191342
15:00+13ююз5862100 0.0 10181590
18:00+11ююв41073100 0.1 1017325
21:00+12ю4117455 0.1 1016365
10 мая, пн
пн1000:00+11ююз4128022 0.0 1017284
03:00+9ю31184100 0.0 1018205
06:00+8ю398530 0.0 1018160
09:00+14ююв510715 0.0 1019372
12:00+18ююв69565 0.0 1019938
15:00+20ююв795034 0.0 10181288
18:00+20юв7116271 0.0 10171104
21:00+16юв61569100 0.0 1017618